Flag for Switzerland Weather past 2 weeks in Schwyz, Schwyz, Switzerland

Now
33 °F

Chilly.


Feels Like: 33 °F
Forecast: 34 / 39 °F
Wind: 1 mph from South

Location: Altdorf

Current Time: Jan 29, 2015 at 11:46:04 AM

Latest Report: Jan 29, 2015 at 11:00 AM


Visibility: N/A

Pressure: 29.62 "Hg

Humidity: 97%

Dew point: 32 °F

Location of SchwyzLocation

Historic Weather in Schwyz — Graph

°F

Schwyz temperature yesterday

Maximum temperature yesterday: 37 °F (at 3:00 PM)
Minimum temperature yesterday: 27 °F (at 7:00 AM)
Average temperature yesterday: 33 °F

Past Weeks' High & Low Weather Summary

 TemperatureHumidityPressure
High58 °F (Jan 16, 11:00 AM)99% (Jan 27, 1:00 AM)30.49 "Hg (Jan 27, 1:00 AM)
Low24 °F (Jan 26, 6:00 AM)31% (Jan 15, 2:00 PM)29.62 "Hg (Jan 16, 3:00 PM)
Average36 °F78%30.05 "Hg
* Reported Jan 14 10:00 AM — Jan 29 10:00 AM, Schwyz, Weather by CustomWeather, © 2014

Note: Actual official high and low records may vary slightly from our data, if they occured in-between our weather recording intervals... More about our weather records

Advertising

Schwyz weather history for previous 24 hours

 ConditionsComfort  
Time TempWeatherWind HumidityBarometerVisibility
10:00 AM
Jan 29
33 °FSnow. Low clouds.2 mph98%29.64 "Hg1 mi
9:00 AM33 °FChilly.1 mph98%29.66 "HgN/A
8:00 AM33 °FChilly.2 mph98%29.67 "HgN/A
7:00 AM33 °FDrizzle. Overcast.2 mph96%29.68 "Hg1 mi
6:00 AM34 °FChilly.3 mph94%29.68 "HgN/A
5:00 AM35 °FChilly.5 mph89%29.68 "HgN/A
3:00 AM33 °FChilly.1 mph96%29.69 "HgN/A
2:00 AM33 °FChilly.2 mph92%29.71 "HgN/A
1:00 AM33 °FSnow. Low clouds.5 mph93%29.74 "Hg5 mi
12:00 AM35 °FChilly.5 mph72%29.75 "HgN/A
11:00 PM
Jan 28
34 °FChilly.1 mph75%29.77 "HgN/A
10:00 PM34 °FOvercast.3 mph73%29.82 "Hg12 mi
9:00 PM33 °FChilly.2 mph73%29.85 "HgN/A
8:00 PM32 °FChilly.5 mph76%29.91 "HgN/A
7:00 PM31 °FPassing clouds.5 mph78%29.96 "Hg9 mi
6:00 PM33 °FChilly.5 mph72%29.98 "HgN/A
5:00 PM37 °FChilly.6 mph59%29.97 "HgN/A
4:00 PM37 °FOvercast.8 mph60%29.99 "Hg12 mi
3:00 PM37 °FChilly.1 mph60%30.07 "HgN/A
2:00 PM36 °FChilly.2 mph64%30.11 "HgN/A
1:00 PM36 °FScattered clouds.5 mph61%30.14 "Hg11 mi
12:00 PM36 °FChilly.5 mph63%30.17 "HgN/A
11:00 AM31 °FChilly.6 mph75%30.21 "HgN/A
Weather by CustomWeather, © 2014

See weather overviewHow to use our weather pages